Tallulah, LA

6:25 PM CST on February 06, 2016 (GMT -0600)
Vicksburg Tallulah Regional

Weather History for KTVR - October, 2014

Change the Weather History Date:

Saturday, October 11, 2014

  Actual Average Record
Temperature  
Mean Temperature 78 °F 67 °F  
Max Temperature 89 °F 80 °F 91 °F (1997)
Min Temperature 67 °F 54 °F 32 °F (1951)
Degree Days  
Heating Degree Days 0 2  
Month to date heating degree days 8 15  
Since 1 July heating degree days 8 20  
Cooling Degree Days 13 4  
Month to date cooling degree days 102 56  
Year to date cooling degree days 2146 2153  
Growing Degree Days 28 (Base 50)    
Moisture  
Dew Point 69 °F    
Average Humidity 72    
Maximum Humidity 93    
Minimum Humidity 50    
Precipitation  
Precipitation T in 0.16 in 0.42 in (2001)
Month to date precipitation 2.22 1.54  
Year to date precipitation 47.46 41.00  
Sea Level Pressure  
Sea Level Pressure 30.01 in    
Wind  
Wind Speed 5 mph (West)    
Max Wind Speed 14 mph    
Max Gust Speed 18 mph    
Visibility 10 miles    
Events      
T = Trace of Precipitation, MM = Missing Value Source: NWS Daily Summary

Daily Weather History Graph

Daily Weather History Graph

Search for Another Location

Airport or City:

Trip Planner

Search our weather history database for the weather conditions in past years. The results will help you decide how hot, cold, wet, or windy it might be!

Date:

Astronomy

Oct. 11, 2014 Rise Set
Actual Time 7:04 AM CDT 6:36 PM CDT
Civil Twilight 6:40 AM CDT 7:00 PM CDT
Nautical Twilight 6:11 AM CDT 7:29 PM CDT
Astronomical Twilight 5:43 AM CDT 7:57 PM CDT
Moon 9:14 PM CDT (10/11) 10:19 AM CDT (10/11)
Length of Visible Light 12h 20m
Length of Day
11h 31m
Waning Gibbous, 87% of the Moon is Illuminated
Oct 11
Waning Gibbous
Oct 15
Last Quarter
Oct 23
New
Oct 30
First Quarter
Nov 6
Full

Hourly Weather History & Observations

Time (CDT) Temp. Heat Index Dew Point Humidity Pressure Visibility Wind Dir Wind Speed Gust Speed Precip Events Conditions
12:53 AM 73.0 °F - 69.1 °F 87% 29.98 in 10.0 mi SSW 3.5 mph - N/A   Overcast
1:53 AM 73.0 °F - 69.1 °F 87% 29.97 in 10.0 mi South 3.5 mph - N/A   Partly Cloudy
2:53 AM 73.0 °F - 69.1 °F 87% 29.98 in 10.0 mi Calm Calm - N/A   Overcast
3:53 AM 72.0 °F - 69.1 °F 91% 29.99 in 10.0 mi SSE 6.9 mph - 0.00 in   Scattered Clouds
4:27 AM 72.0 °F - 70.0 °F 93% 29.97 in 10.0 mi South 5.8 mph - N/A   Overcast
4:53 AM 73.0 °F - 70.0 °F 90% 29.99 in 10.0 mi Calm Calm - N/A   Overcast
5:53 AM 73.9 °F - 71.1 °F 91% 29.99 in 10.0 mi SSW 5.8 mph - N/A   Overcast
6:08 AM 73.9 °F - 71.1 °F 91% 29.98 in 10.0 mi SW 4.6 mph - N/A   Overcast
6:53 AM 73.9 °F - 70.0 °F 87% 30.02 in 10.0 mi Variable 5.8 mph - N/A   Scattered Clouds
7:05 AM 73.9 °F - 70.0 °F 87% 30.01 in 10.0 mi Variable 4.6 mph - N/A   Mostly Cloudy
7:45 AM 73.0 °F - 70.0 °F 90% 30.02 in 10.0 mi Calm Calm - N/A   Scattered Clouds
7:53 AM 73.0 °F - 71.1 °F 93% 30.04 in 10.0 mi Calm Calm - N/A   Scattered Clouds
8:53 AM 75.9 °F - 71.1 °F 85% 30.05 in 10.0 mi Variable 4.6 mph - N/A   Mostly Cloudy
9:04 AM 77.0 °F - 71.1 °F 82% 30.04 in 10.0 mi Variable 4.6 mph - N/A   Mostly Cloudy
9:29 AM 78.1 °F - 71.1 °F 79% 30.04 in 10.0 mi Variable 4.6 mph - N/A   Scattered Clouds
9:53 AM 78.1 °F - 71.1 °F 79% 30.05 in 10.0 mi WSW 6.9 mph - N/A   Mostly Cloudy
10:17 AM 80.1 °F 83.2 °F 70.0 °F 71% 30.03 in 10.0 mi Variable 5.8 mph - N/A   Scattered Clouds
10:53 AM 81.0 °F 84.4 °F 70.0 °F 69% 30.04 in 10.0 mi WNW 5.8 mph - N/A   Scattered Clouds
11:03 AM 79.0 °F - 70.0 °F 74% 30.03 in 10.0 mi Variable 4.6 mph - N/A   Mostly Cloudy
11:27 AM 81.0 °F 84.9 °F 71.1 °F 72% 30.03 in 10.0 mi Variable 4.6 mph - N/A   Scattered Clouds
11:53 AM 82.0 °F 86.3 °F 71.1 °F 69% 30.04 in 10.0 mi Variable 3.5 mph - N/A   Partly Cloudy
12:53 PM 86.0 °F 90.7 °F 70.0 °F 59% 30.02 in 10.0 mi WSW 5.8 mph - N/A   Clear
1:53 PM 86.0 °F 88.8 °F 66.9 °F 53% 29.99 in 10.0 mi West 9.2 mph - N/A   Clear
2:53 PM 87.1 °F 89.9 °F 66.9 °F 51% 29.98 in 10.0 mi WSW 8.1 mph - N/A   Clear
3:53 PM 87.1 °F 91.3 °F 69.1 °F 55% 29.99 in 10.0 mi NW 5.8 mph - N/A   Mostly Cloudy
4:53 PM 84.0 °F 86.3 °F 66.0 °F 55% 29.97 in 10.0 mi WNW 5.8 mph - N/A   Clear
5:53 PM 80.1 °F 81.5 °F 63.0 °F 56% 29.98 in 10.0 mi North 5.8 mph - N/A   Clear
6:53 PM 75.9 °F - 66.0 °F 71% 29.98 in 10.0 mi North 5.8 mph - N/A   Clear
7:53 PM 75.0 °F - 66.9 °F 76% 29.99 in 10.0 mi North 8.1 mph - N/A   Clear
8:53 PM 72.0 °F - 66.9 °F 84% 30.02 in 10.0 mi North 10.4 mph - N/A   Clear
9:53 PM 70.0 °F - 66.0 °F 87% 30.04 in 10.0 mi NNE 10.4 mph - N/A   Clear
10:53 PM 70.0 °F - 66.0 °F 87% 30.03 in 10.0 mi ENE 4.6 mph - N/A   Mostly Cloudy
11:53 PM 69.1 °F - 64.9 °F 87% 30.01 in 10.0 mi East 4.6 mph - N/A   Scattered Clouds